Location: Stanford
(52.2833°N, 2.4333°W)
Time: 02:19:16
(UTC+00:00)

Cosmos 1680 Rocket - Pass Details

Date: 22 January 2021
Orbit: 760 x 780 km, 74.1° (Epoch: 28 February)

Event Time Altitude Azimuth Distance (km) Brightness Sun altitude
Rises 18:44:04 0° 333° (NNW) 3,253 7.0 -18.7°
Reaches altitude 10° 18:46:28 10° 333° (NNW) 2,320 6.2 -19.1°
Maximum altitude 18:51:43 78° 247° (WSW) 788 3.6 -19.9°
Drops below altitude 10° 18:56:55 10° 163° (SSE) 2,293 5.8 -20.7°
Sets 18:59:16 0° 162° (SSE) 3,213 6.6 -21.0°
